Overview Statistics Trail Chart Weather Telemetry Raw packets
 

This is the latest recevied weather packets stored in our database for station/object KN6CRX-10. If no packets are shown the sender has not sent any weather packets the latest 10 day(s).

<< 31 32 33 34 35 36 37 >>
Time Temp. Humidity Pressure Rain* Wind** Luminosity Snow
1788192259 17.22° C 43% 1021.2 hPa 0 mm - 447 W/m² -
1788191954 16.67° C 47% 1021.4 hPa 0 mm - 428 W/m² -
1788191654 15.56° C 49% 1021.5 hPa 0 mm - 47 W/m² -
1788191349 15.56° C 51% 1021.4 hPa 0 mm - 47 W/m² -
1788191046 15.56° C 50% 1021.5 hPa 0 mm - 85 W/m² -
1788190743 15° C 50% 1021.5 hPa 0 mm - 343 W/m² -
1788190440 13.89° C 53% 1021.6 hPa 0 mm - 333 W/m² -
1788190136 13.89° C 55% 1021.5 hPa 0 mm - 46 W/m² -
1788189831 13.33° C 57% 1021.4 hPa 0 mm - 46 W/m² -
1788189532 13.33° C 57% 1021.5 hPa 0 mm - 41 W/m² -
1788189231 13.33° C 53% 1021.5 hPa 0 mm - 39 W/m² -
1788188926 13.33° C 53% 1021.5 hPa 0 mm - 39 W/m² -
1788188622 12.78° C 54% 1021.4 hPa 0 mm - 38 W/m² -
1788188320 12.78° C 57% 1021.4 hPa 0 mm - 37 W/m² -
1788188017 12.22° C 59% 1021.5 hPa 0 mm - 37 W/m² -
1788187712 12.22° C 58% 1021.5 hPa 0 mm - 36 W/m² -
1788187408 11.67° C 58% 1021.5 hPa 0 mm - 36 W/m² -
1788187103 11.11° C 58% 1021.5 hPa 0 mm - 35 W/m² -
1788186798 11.11° C 62% 1021.3 hPa 0 mm - 34 W/m² -
1788186493 10.56° C 65% 1021.3 hPa 0 mm - 33 W/m² -
1788186189 10° C 66% 1021.4 hPa 0 mm - 33 W/m² -
1788185889 10° C 67% 1021.2 hPa 0 mm - 32 W/m² -
1788185583 9.44° C 66% 1021.2 hPa 0 mm - 31 W/m² -
1788185278 8.89° C 68% 1020.9 hPa 0 mm - 30 W/m² -
1788184972 8.89° C 69% 1021.2 hPa 0 mm - 29 W/m² -

* Rain latest hour (hover to see other rain measurements)
** Current wind speed in m/s (hover to see current wind gust speed)